Location: Observatory
(52.1446°N, 0.4624°W)
Time: 11:10:02
(UTC+01:00)

ISS - Pass Details

Date: 09 July 2020
Orbit: 417 x 420 km, 51.6° (Epoch: 02 July)

Event Time Altitude Azimuth Distance (km) Brightness Sun altitude
Exits shadow 01:36:39 33° 160° (SSE) 729 -3.0 -15.3°
Maximum altitude 01:36:50 33° 153° (SSE) 725 -3.0 -15.3°
Drops below altitude 10° 01:39:54 10° 87° (E) 1,498 -0.8 -15.2°
Sets 01:42:06 0° 78° (ENE) 2,364 0.3 -15.1°
